Regional Weather Roundup
Issued by NWS Albany, NY

Home | Current Version | Previous Version | Text Only | Print | Product List | Glossary On
Versions: 1 2 3 4 5 6 7 8 9 10 11 12 13 14 15 16 17 18 19 20 21 22 23 24 25 26 27 28 29 30 31 32 33 34 35 36 37 38 39 40 41 42 43 44 45 46 47 48 49 50
000
ASUS41 KALY 042310
RWRALY

NEW YORK STATE HOURLY WEATHER ROUNDUP
NATIONAL WEATHER SERVICE ALBANY NY
700 PM EDT SAT JUL 04 2015

NOTE: "FAIR" INDICATES FEW OR NO CLOUDS BELOW 12,000 FEET WITH NO
SIGNIFICANT WEATHER AND/OR NO OBSTRUCTIONS TO VISIBILITY.

NYZ032-033-038>043-046>054-057>066-NYZ062>081-050000-
EAST


CITY           SKY/WX    TMP DP  RH WIND       PRES   REMARKS
ALBANY         PTSUNNY   68  60  75 SE5       29.96F
GLENS FALLS    PTSUNNY   66  60  81 S6        29.96F
POUGHKEEPSIE   MOSUNNY   73  58  59 CALM      29.96S
NEWBURGH       PTSUNNY   72  63  73 CALM      29.98S
MONTGOMERY     CLOUDY    71  59  65 CALM      29.97S
WHITE PLAINS   PTSUNNY   73  54  51 CALM      29.96R
ISLIP          PTSUNNY   74  59  59 NE6       29.93R
NEW YORK CITY  PTSUNNY   75  42  30 E8        29.94S
CENTRAL PARK   MOSUNNY   74  52  46 E6        29.97S
$$

NYZ005>009-017-018-044>046-055-056-050000-
CENTRAL


CITY           SKY/WX    TMP DP  RH WIND       PRES   REMARKS
FULTON         SUNNY     73  62  68 NW8       29.93S
SYRACUSE       PTSUNNY   74  62  66 S12       29.92S
ROME           SUNNY     74  61  63 S7        29.93S
ELMIRA         MOSUNNY   71  64  78 SE10      29.95R
BINGHAMTON     CLOUDY    63  60  90 S6        29.99S
MONTICELLO     CLOUDY    66  57  72 CALM      30.01S
$$

NYZ026>034-041>043-050000-
NORTH


CITY           SKY/WX    TMP DP  RH WIND       PRES   REMARKS
WATERTOWN      SUNNY     72  62  71 SW5       29.91F
FORT DRUM      NOT AVBL
MASSENA        MOSUNNY   75  57  53 SW5       29.91S
SARANAC LAKE   CLOUDY    64  60  87 CALM      29.94F
PLATTSBURGH    CLOUDY    64  62  93 VRB3      29.91F
$$

NYZ001>004-010>016-019>021-050000-
WEST


CITY           SKY/WX    TMP DP  RH WIND       PRES   REMARKS
NIAGARA FALLS  MOSUNNY   75  51  43 NW5       29.96S
BUFFALO        MOSUNNY   75  47  36 NW8       29.97S
DUNKIRK        SUNNY     70  54  56 W8        29.99S
JAMESTOWN      SUNNY     68  46  45 N7        30.03R
WELLSVILLE     MOSUNNY   71  57  61 N9        30.02R
ROCHESTER      MOSUNNY   74  51  44 NW5       29.96R
PENN YAN       PTSUNNY   68  64  87 CALM      29.97R
$$

             KEY
       WCI = WIND CHILL INDEX
       VSB = VISIBILITY
       HX  = HEAT INDEX
$$


USA.gov is the U.S. government's official web portal to all federal, state and local government web resources and services.